Погода в Холме

Погода в Холме : погода сейчас, прогноз погоды и архив. Всё, что Вы хотите узнать о погоде в Холме!

Поиск расширенной информации на нашем сайте:

Другие новости

Новости СМИ2

Главная страница сайта

Новости сайта

02.10.2013

Напоминаем, что на нашем новом сайте вы можете получить высокодетализированные прогнозы погоды по пунктам России, СНГ и мира (включающие важные для авиации метеовеличины, такие как направление и скорость ветра, видимость, явления погоды, количество и форма облачности, нижняя и верхняя граница облачности), а также ознакомиться с разнообразными материалами по авиационной метеорологии и подборкой полезных ссылок на эту тему.

Сайт Метеоцентр.Азия посвящён разработке технологий оптимизации авиаметеорологического обслуживания, включая проектирование и перспективное создание нескольких автоматизированных авиаметеорологических систем:
- система выпуска высокодетальных прогностических карт явлений погоды для нижнего воздушного пространства по России и ближнему зарубежью;
- система верификации прогнозов TAF (выпускаемых синоптиками официальных АМСГ РФ и ближнего зарубежья) и AUTOTAF (выпускаемых сайтом Метеоцентр.Азия) - выявление ошибок, онлайн-сопоставление с фактической погодой METAR, автоматическое внесение коррективов в прогнозы при резком отклонении фактической погоды от прогноза, подсчёт оправдываемости прогнозов по элементам и в целом;
- система обработки, анализа и отображения авиаметеорологической информации для применения провайдерами метеорологической информации.

Рекомендуем: Люстры и светильники.

Погода в Холме - сегодня

Время (UTC), дата Ветер
(°,м/с) 
Видим.   Явления Облачность Т
(°С)
Тd
(°С)
f(%) Тe
(°С)
Pmin
(гПа)
dP
(гПа)
Po
(мм)
O2
(г/м3)
Тmin Tmax R s Состояние
почвы
09 26.04.17 220 (ЮЗ) 20000 м    9/3 600 м кучево-дожд., средняя, верхняя 
[Cb cap|Ac trans|Ci sp]
+6 -0.1 65 +5  1005.9  1.5  748  295           
12 26.04.17 200 (Ю) 20000 м    9/3 600 м кучево-дожд., средняя 
[Cb cap|Ac trans]
+7.8 +0.1 58 +7  1006.8  749  293           
15 26.04.17 200 (Ю) 4{10}  20000 м    8/3 600 м кучево-дожд., средняя, верхняя 
[Cb cap|Ac lent|Ci fib]
+9.1 -2.9 43 +8  1007.5  0.7  749  292         
18 26.04.17 230 (ЮЗ) 20000 м    9/3 600 м кучево-дожд., средняя, верхняя 
[Cb cap|Ac lent|Ci fib]
+7.6 -3.2 46 +7  1009.1  1.5  750  294    +9.3       
21 26.04.17 170 (Ю) 20000 м    3/0 средняя 
[Ac trans]
+4.3 +0.3 75 +4  1011  1.8  752  298           
00 27.04.17 190 (Ю) 20000 м    ясно 
-1.2 -2.4 92 -1  1012.3  1.2  752  305           
03 27.04.17 150 (ЮВ) 20000 м    8/0 верхняя 
[Cc]
-0.9 -1.4 96 1012.9  0.6  753  305  -1.9         
06 27.04.17 180 (Ю) 20000 м    9/0 средняя 
[Ac trans]
+5.1 -1.9 61 +6  1013.4  0.7  753  298  -1.9         
09 27.04.17 210 (ЮЗ) 20000 м    9/6 1000 м средняя 
[Sc|Ac trans]
+7.8 -1.6 51 +8  1013.2  0.1  753  295           
12 27.04.17 190 (Ю) 20000 м    10/6 1110 м средняя 
[Sc|Ac As]
+9.3 -2.9 42 +9  1013.6  0.5  754  294           
15 27.04.17 190 (Ю) 20000 м    10/3 1000 м средняя 
[Sc|Ac As]
+9.2 -2.9 42 +9  1014.3  0.7  754  294           
18 27.04.17 160 (Ю) 20000 м    8/0 средняя, верхняя 
[Ac trans|Ci fib]
+5.7 -2 58 +7  1015.6  1.2  755  298    +9.7       
21 27.04.17 тихо ()   20000 м    3/0 верхняя 
[Ci fib]
-1.5 -2.4 94 -2  1016.9  756  307           
00 28.04.17 тихо ()   20000 м    ясно 
-0.1 -0.7 96 -0  1018.3  1.4  757  305           
03 28.04.17 тихо ()   20000 м    4/0 средняя, верхняя 
[Ac trans|Ci fib]
-1.1 -1.6 96 -1  1019.8  1.5  758  307  -1.7         
06 28.04.17 тихо ()   20000 м    3/0 верхняя 
[Ci fib]
+8 +0.9 61 +8  1020.6  1.2  759  297  -1.7         
09 28.04.17 360 (С) 20000 м    8/3 600 м верхняя 
[Cu hum|Ci sp]
+12.7 -5.5 28 +14  1020.7  759  293           
12 28.04.17 050 (СВ) 20000 м    9/0 средняя, верхняя 
[Ac lent|Ci sp]
+12.6 -4.8 29 +13  1020.5  -0.1  759  293           
15 28.04.17 040 (СВ) 3{12}  20000 м    10/4 600 м кучево-дожд., средняя 
[Cb cap|Ac As]
+10.7 -3 38 +10  1019.7  -0.9  758  294           
18 28.04.17 040 (СВ) 4{10}  20000 м  {ливн. осадки}  10/3 600 м кучево-дожд., средняя 
[Cb cap|Ac As]
+8.6 -1.4 49 +7  1019.3  -0.4  758  296    +13.3  0.0     
21 28.04.17 060 (СВ) 5-10{12}  10 км  слаб. ливневой дождь  10/10 800 м кучево-дожд. 
[Cb cap]
+5.4 +3.4 87 +3  1018  -1.3  757  299           
00 29.04.17 030 (СВ) 4{10}  10 км  слаб. ливневой дождь  10/10 600 м кучево-дожд. 
[Cb cap]
+4.1 +3.1 93 +2  1015.4  -2.6  755  299           
03 29.04.17 040 (СВ) 10 км  слаб. дождь  10/10 210 м 
[Ns]
+4.5 +3.6 94 +3  1013.1  -2.2  753  298  +4.1    15     
06 29.04.17 040 (СВ) 10 км  слаб. дождь  10/10 240 м 
[Ns]
+6 +5.2 95 +4  1011.3  -1.7  752  296  +4.1    19     
09 29.04.17 110 (В) 20000 м  {дождь}  8/4 600 м верхняя 
[Sc|Ci sp]
+12.7 +8 73 +12  1009.7  -1.3  751  288           
Время (UTC), дата Ветер
(°,м/с) 
Видим.   Явления Облачность Т
(°С)
Тd
(°С)
f(%) Тe
(°С)
Pmin
(гПа)
dP
(гПа)
Po
(мм)
O2
(г/м3)
Тmin Tmax R s Состояние
почвы

Для получения пояснительной информации подведите курсор к названию столбца.

ПОГОДА в Холме - архив

Всё, что Вы хотите узнать о погоде в Холме - удобно и подробно!

Выберите нужную дату (начиная с 1 января 2015* года) и нажмите кнопку "Найти".
Будут отображены архивные сводки погоды по пункту Холм, начиная с указанной даты.


Отображать данные в формате CSV (для использования в таблицах Excel)


Внимание! Наш архив погоды предназначен исключительно для личного некоммерческого использования в познавательных целях. Если Вам необходимы официальные справки о состоянии погоды (для производственных, юридических, коммерческих и т.п. целей), обращайтесь в органы Росгидромета.

*Примечание: данная дата относится к архиву по метеостанциям СССР (Россия, СНГ, Балтия).
Архив по метеостанциям Зарубежной Европы и Азии (кроме Китая) хранится 10 дней, по другим регионам земного шара (Китай, Африка, Америка, Австралия, Океания) - 1 день.

Холм - район местоположения метеостанции


Название, широта, долгота, высота метеостанции:
Холм 57.2°ш. 31.2°д. 71 м над ур. моря [Российская Федерация]

Дополнительная информация

В oтличие oт бoльшинства пoгoдных сайтoв мы публикуем пoдрoбную метеoинфoрмацию в детальнoм прoфессиoнальнoм фoрмате.

Характеристики температуры и влажнoсти вoздуха измеряются на высoте 2 м в тени вдали oт зданий и деревьев.
Скoрoсть ветра измеряется на высoте 10 м (на урoвне рoста челoвека скoрoсть ветра ниже в 1.5-2 раза). Если метеoстанция нахoдится в гoрoде или в лесу, тo скoрoсть ветра занижена на 2-4 м/с пo сравнению с oткрытым местoм. Скoрoсть ветра над акватoриями крупных рек и oзёр, а также на вершинах хoлмoв на 2-5 м/с выше, чем в oбычных услoвиях.
Атмoсфернoе давление в разных тoчках местнoсти мoжет значительнo oтличаться oт давления на метеoстанции, в зависимoсти oт услoвий рельефа (при пoдъёме на 10 м давление пoнижается примернo на 1 мм рт.ст.).